Weather History for KHJO - October, 2013

Change the Weather History Date:

Tuesday, October 29, 2013

  Actual Average Record
Temperature  
Mean Temperature 54 °F 59 °F  
Max Temperature 68 °F 73 °F 86 °F (2003)
Min Temperature 39 °F 44 °F 31 °F (2009)
Degree Days  
Heating Degree Days 11    
Month to date heating degree days 60  
Since 1 July heating degree days 67  
Cooling Degree Days 0    
Month to date cooling degree days 22  
Year to date cooling degree days 2057  
Growing Degree Days 2 (Base 50)    
Moisture  
Dew Point 41 °F    
Average Humidity 67    
Maximum Humidity 96    
Minimum Humidity 37    
Precipitation  
Precipitation 0.00 in 0.04 in 0.38 in (2000)
Month to date precipitation T 0.44  
Year to date precipitation 1.61 7.41  
Since 1 July precipitation 0.01 0.65  
Snow  
Snow 0.00 in - - ()
Month to date snowfall 0.0  
Since 1 July snowfall 0.0  
Since 1 September snowfall 0.0  
Snow Depth 0.00 in    
Sea Level Pressure  
Sea Level Pressure 29.97 in    
Wind  
Wind Speed 6 mph (North)    
Max Wind Speed 12 mph    
Max Gust Speed 19 mph    
Visibility 9 miles    
Events      
T = Trace of Precipitation, MM = Missing Value Source: NWS Daily Summary

Daily Weather History Graph

Daily Weather History Graph

Search for Another Location

Airport or City:

Trip Planner

Search our weather history database for the weather conditions in past years. The results will help you decide how hot, cold, wet, or windy it might be!

Date:

Astronomy

Oct. 29, 2013 Rise Set
Actual Time 7:18 AM PDT 6:04 PM PDT
Civil Twilight 6:52 AM PDT 6:31 PM PDT
Nautical Twilight 6:22 AM PDT 7:01 PM PDT
Astronomical Twilight 5:52 AM PDT 7:31 PM PDT
Moon 2:22 AM PDT (10/29) 3:13 PM PDT (10/29)
Length of Visible Light 11h 39m
Length of Day
10h 46m
Waning Crescent, 24% of the Moon is Illuminated
Oct 29
Waning Crescent
Nov 3
New
Nov 9
First Quarter
Nov 17
Full
Nov 25
Last Quarter

Hourly Weather History & Observations

Time (PDT) Temp. Windchill Dew Point Humidity Pressure Visibility Wind Dir Wind Speed Gust Speed Precip Events Conditions
12:53 AM 46.9 °F - 44.1 °F 90% 29.91 in 10.0 mi East 3.5 mph - N/A   Clear
1:53 AM 44.1 °F 42.5 °F 42.1 °F 93% 29.92 in 10.0 mi ESE 3.5 mph - N/A   Clear
2:53 AM 44.1 °F 42.5 °F 41.0 °F 89% 29.93 in 9.0 mi East 3.5 mph - N/A   Clear
3:53 AM 43.0 °F 39.5 °F 41.0 °F 93% 29.93 in 9.0 mi ENE 5.8 mph - N/A   Clear
4:53 AM 43.0 °F 38.2 °F 41.0 °F 93% 29.94 in 9.0 mi ENE 8.1 mph - N/A   Clear
5:53 AM 41.0 °F 39.0 °F 39.0 °F 93% 29.95 in 6.0 mi SSW 3.5 mph - N/A   Clear
6:53 AM 39.0 °F 36.8 °F 37.9 °F 96% 29.96 in 7.0 mi ENE 3.5 mph - N/A   Clear
7:53 AM 41.0 °F 37.1 °F 39.0 °F 93% 29.97 in 7.0 mi NE 5.8 mph - N/A   Clear
8:53 AM 48.0 °F - 44.1 °F 86% 29.99 in 8.0 mi East 3.5 mph - N/A   Clear
9:53 AM 54.0 °F - 45.0 °F 72% 30.00 in 9.0 mi South 5.8 mph - N/A   Clear
10:53 AM 57.0 °F - 45.0 °F 64% 30.01 in 10.0 mi WSW 4.6 mph - N/A   Clear
11:53 AM 61.0 °F - 44.1 °F 54% 30.00 in 10.0 mi Variable 3.5 mph - N/A   Clear
12:53 PM 63.0 °F - 43.0 °F 48% 29.98 in 10.0 mi Variable 3.5 mph - N/A   Clear
1:53 PM 64.0 °F - 39.9 °F 41% 29.96 in 10.0 mi NW 5.8 mph - N/A   Clear
2:53 PM 66.0 °F - 39.9 °F 38% 29.96 in 10.0 mi NNW 8.1 mph - N/A   Partly Cloudy
3:53 PM 66.9 °F - 39.9 °F 37% 29.96 in 10.0 mi NNW 8.1 mph - N/A   Scattered Clouds
4:53 PM 66.0 °F - 39.9 °F 38% 29.96 in 10.0 mi North 8.1 mph - N/A   Clear
5:53 PM 63.0 °F - 37.9 °F 40% 29.96 in 10.0 mi NNW 4.6 mph - N/A   Clear
6:53 PM 59.0 °F - 41.0 °F 51% 29.99 in 10.0 mi NW 5.8 mph - N/A   Clear
7:53 PM 55.9 °F - 39.9 °F 55% 30.00 in 10.0 mi NW 6.9 mph - N/A   Clear
8:53 PM 55.9 °F - 42.1 °F 60% 30.00 in 10.0 mi NNW 5.8 mph - N/A   Clear
9:53 PM 53.1 °F - 42.1 °F 66% 30.03 in 10.0 mi NW 5.8 mph - N/A   Clear
10:53 PM 53.1 °F - 42.1 °F 66% 30.04 in 10.0 mi NW 8.1 mph - N/A   Clear
11:53 PM 51.1 °F - 43.0 °F 74% 30.04 in 10.0 mi NNW 6.9 mph - N/A   Clear